User: anonymous   Login
Location: Vancouver
(49.2500°N, 123.1330°W)
Time: 21:22:08
(UTC-07:00)
Language:

Transit 2A Rocket - Orbit

View from above orbital plane
View from above orbital plane
View from above satellite
View from above satellite

Ground track
Ground track

The orbit data is extracted from the following two-line orbital elements,

1 00047U 60007C   15216.45592548  .00000052  00000-0  36748-4 0  9990
2 00047 066.6640 230.6482 0227206 166.4627 194.2714 14.41672840878645
Epoch (UTC): 04 August 2015 10:56:31
Eccentricity: 0.0227206
inclination: 66.6640°
perigee height: 591 km
apogee height: 915 km
right ascension of ascending node: 230.6482°
argument of perigee: 166.4627°
revolutions per day: 14.41672840
mean anomaly at epoch: 194.2714°
orbit number at epoch: 87864

The dashed part of the orbit path shows where the satellite is in the earth's shadow,  

DLR